User: anonymous   Login
Location: Caltech
(34.1382°N, 118.1253°W)
Time: 22:14:02
(UTC-07:00)
Language:

SL-08 R/B - Orbit

View from above orbital plane
View from above orbital plane
View from above satellite
View from above satellite

Ground track
Ground track

The orbit data is extracted from the following two-line orbital elements,

1 27561U 02054C   15085.37872239  .00000748  00000-0  18078-3 0  9998
2 27561 098.1426 222.7498 0046740 173.2616 186.9220 14.55258217653905
Epoch (UTC): 26 March 2015 09:05:21
Eccentricity: 0.0046740
inclination: 98.1426°
perigee height: 675 km
apogee height: 741 km
right ascension of ascending node: 222.7498°
argument of perigee: 173.2616°
revolutions per day: 14.55258217
mean anomaly at epoch: 186.9220°
orbit number at epoch: 65390

The dashed part of the orbit path shows where the satellite is in the earth's shadow,  

DLR